KB1DML Weather Reports


time (UTC)temp
C
wind
direction
speed
KPH
gust
KPH
rain 1hr
cm
rain 24hr
cm
rain mn
cm
humidity
%
barometer
mb
20260505055016 13 225 1.6 8.0 0.00 0.00 0.00 67 1009.0
20260505054517 13 180 1.6 4.8 0.00 0.00 0.00 66 1009.0
20260505054017 13 225 1.6 4.8 0.00 0.00 0.00 66 1009.0
20260505053516 13 225 1.6 8.0 0.00 0.00 0.00 66 1009.0
20260505053017 13 225 1.6 4.8 0.00 0.00 0.00 65 1009.0
20260505052537 13 203 3.2 11.3 0.00 0.00 0.00 65 1008.9
20260505052016 13 225 3.2 9.7 0.00 0.00 0.00 65 1009.0
20260505051517 13 135 1.6 6.4 0.00 0.00 0.00 65 1008.9
20260505051017 13 0 1.6 6.4 0.00 0.00 0.00 64 1008.9
20260505050517 13 0 3.2 11.3 0.00 0.00 0.00 64 1009.0
20260505041617 14 180 4.8 20.9 0.00 0.00 0.00 61 1009.0
20260505041017 14 158 3.2 16.1 0.00 0.00 0.00 61 1009.0
20260505040516 14 0 3.2 8.0 0.00 0.00 0.00 60 1009.1
20260505040016 14 0 3.2 11.3 0.00 0.00 0.00 60 1009.1
20260505035555 14 0 3.2 12.9 0.00 0.00 0.00 59 1009.0
20260505035055 14 0 4.8 14.5 0.00 0.00 0.00 59 1008.8
20260505034515 14 0 3.2 16.1 0.00 0.00 0.00 59 1008.9
20260505034015 15 0 4.8 17.7 0.00 0.00 0.00 58 1008.8
20260505033515 15 0 4.8 16.1 0.00 0.00 0.00 58 1008.9
20260505033015 15 0 3.2 16.1 0.00 0.00 0.00 57 1008.9
20260505032514 15 0 4.8 16.1 0.00 0.00 0.00 57 1008.8
20260505032015 15 0 4.8 12.9 0.00 0.00 0.00 56 1008.7
20260505031538 15 0 3.2 11.3 0.00 0.00 0.00 56 1008.8
20260505031016 15 0 3.2 14.5 0.00 0.00 0.00 56 1008.8
20260505030537 15 0 3.2 12.9 0.00 0.00 0.00 55 1008.8
20260505030017 15 0 3.2 11.3 0.00 0.00 0.00 55 1008.9
20260505025517 15 0 3.2 12.9 0.00 0.00 0.00 54 1008.9
20260505025057 15 0 4.8 16.1 0.00 0.00 0.00 54 1008.9
20260505024517 15 225 4.8 14.5 0.00 0.00 0.00 53 1008.8
20260505024017 15 180 4.8 17.7 0.00 0.00 0.00 53 1008.9
20260505023517 15 225 4.8 16.1 0.00 0.00 0.00 52 1008.9
20260505023017 15 225 4.8 14.5 0.00 0.00 0.00 52 1009.0
20260505022516 15 225 3.2 16.1 0.00 0.00 0.00 51 1009.0
20260505022017 15 203 4.8 12.9 0.00 0.00 0.00 51 1008.9
20260505021516 16 135 4.8 14.5 0.00 0.00 0.00 50 1008.9
20260505021017 16 203 4.8 14.5 0.00 0.00 0.00 50 1008.9
20260505020516 16 135 4.8 16.1 0.00 0.00 0.00 49 1008.9
20260505020016 16 158 4.8 17.7 0.00 0.00 0.00 49 1008.9
20260505015537 16 0 3.2 11.3 0.00 0.00 0.00 48 1008.8
20260505015017 16 0 4.8 24.1 0.00 0.00 0.00 48 1008.9
20260505014517 16 0 4.8 12.9 0.00 0.00 0.00 48 1008.8
20260505014017 16 0 4.8 22.5 0.00 0.00 0.00 48 1008.7
20260505013516 16 0 6.4 24.1 0.00 0.00 0.00 47 1008.6
20260505013017 16 0 3.2 14.5 0.00 0.00 0.00 47 1008.6
20260505012517 16 180 4.8 17.7 0.00 0.00 0.00 47 1008.6
20260505012016 16 158 4.8 19.3 0.00 0.00 0.00 47 1008.4
20260505011517 16 180 4.8 22.5 0.00 0.00 0.00 46 1008.4
20260505011016 16 158 4.8 11.3 0.00 0.00 0.00 46 1008.3
20260505010516 17 180 4.8 22.5 0.00 0.00 0.00 46 1008.2
20260505010017 17 0 6.4 17.7 0.00 0.00 0.00 45 1008.2
20260505005517 17 0 8.0 19.3 0.00 0.00 0.00 45 1008.2
20260505005017 17 0 6.4 25.7 0.00 0.00 0.00 44 1008.1
20260505004517 17 0 6.4 16.1 0.00 0.00 0.00 44 1007.9
20260505004016 17 0 6.4 19.3 0.00 0.00 0.00 44 1007.8
20260505003516 17 0 8.0 22.5 0.00 0.00 0.00 44 1007.7
20260505003017 17 0 9.7 22.5 0.00 0.00 0.00 43 1007.5
20260505002517 18 0 6.4 22.5 0.00 0.00 0.00 42 1007.3
20260505002016 18 0 8.0 29.0 0.00 0.00 0.00 41 1007.2
20260505001516 18 0 6.4 17.7 0.00 0.00 0.00 41 1007.1
20260505000516 18 0 6.4 16.1 0.00 0.00 0.00 41 1006.8
20260505000037 18 0 6.4 19.3 0.00 0.00 0.00 41 1006.7
20260504235516 18 0 4.8 20.9 0.00 0.00 0.00 40 1006.7
20260504235016 18 0 4.8 22.5 0.00 0.00 0.00 40 1006.6
20260504234516 19 0 6.4 29.0 0.00 0.00 0.00 40 1006.4
20260504234016 19 0 8.0 30.6 0.00 0.00 0.00 40 1006.5
20260504233516 19 0 6.4 19.3 0.00 0.00 0.00 39 1006.3
20260504233016 19 225 8.0 32.2 0.00 0.00 0.00 39 1006.3
20260504232557 20 225 4.8 16.1 0.00 0.00 0.00 39 1006.2
20260504232016 20 0 8.0 27.4 0.00 0.00 0.00 38 1006.1
20260504231516 20 0 6.4 22.5 0.00 0.00 0.00 38 1006.0
20260504231016 20 0 8.0 25.7 0.00 0.00 0.00 38 1005.9
20260504230518 20 0 8.0 19.3 0.00 0.00 0.00 37 1005.8
20260504230036 20 0 6.4 16.1 0.00 0.00 0.00 37 1005.6
20260504225536 20 180 8.0 29.0 0.00 0.00 0.00 36 1005.6
20260504225016 21 0 9.7 30.6 0.00 0.00 0.00 36 1005.4
20260504224536 21 0 4.8 24.1 0.00 0.00 0.00 35 1005.3
20260504224016 21 0 9.7 27.4 0.00 0.00 0.00 34 1005.3
20260504223516 21 180 6.4 22.5 0.00 0.00 0.00 33 1005.3
20260504223016 21 225 6.4 16.1 0.00 0.00 0.00 33 1005.2
20260504222537 22 0 8.0 24.1 0.00 0.00 0.00 32 1005.2
20260504222016 22 225 6.4 20.9 0.00 0.00 0.00 32 1005.1
20260504221516 22 180 6.4 14.5 0.00 0.00 0.00 31 1005.1
20260504221017 22 135 8.0 17.7 0.00 0.00 0.00 31 1005.1
20260504220516 22 203 4.8 20.9 0.00 0.00 0.00 29 1005.1
20260504220016 22 225 4.8 17.7 0.00 0.00 0.00 27 1005.0
20260504215516 23 225 3.2 14.5 0.00 0.00 0.00 27 1005.0
20260504215017 23 225 6.4 16.1 0.00 0.00 0.00 27 1005.1
20260504214516 23 225 6.4 17.7 0.00 0.00 0.00 27 1005.1
20260504214016 23 225 4.8 22.5 0.00 0.00 0.00 26 1005.1
20260504213516 23 0 4.8 20.9 0.00 0.00 0.00 26 1005.1
20260504213056 23 0 4.8 27.4 0.00 0.00 0.00 26 1005.1
20260504212518 23 0 4.8 16.1 0.00 0.00 0.00 26 1005.0
20260504212016 23 0 6.4 14.5 0.00 0.00 0.00 26 1005.0
20260504211516 23 0 3.2 8.0 0.00 0.00 0.00 27 1005.0
20260504211016 23 0 4.8 14.5 0.00 0.00 0.00 26 1005.0
20260504210517 23 203 6.4 20.9 0.00 0.00 0.00 26 1005.1
20260504210016 23 203 6.4 19.3 0.00 0.00 0.00 26 1005.1
20260504205516 23 225 6.4 27.4 0.00 0.00 0.00 26 1005.0
20260504205016 23 225 4.8 16.1 0.00 0.00 0.00 26 1005.0
20260504204556 22 225 4.8 19.3 0.00 0.00 0.00 26 1005.0
20260504204017 22 225 6.4 17.7 0.00 0.00 0.00 26 1005.1
20260504203516 22 203 6.4 12.9 0.00 0.00 0.00 26 1005.2
20260504203016 22 225 4.8 12.9 0.00 0.00 0.00 25 1005.0
20260504202536 22 225 4.8 17.7 0.00 0.00 0.00 25 1005.1
20260504202016 22 225 6.4 16.1 0.00 0.00 0.00 25 1005.1
20260504201516 22 203 4.8 20.9 0.00 0.00 0.00 25 1005.3
20260504201016 22 225 6.4 16.1 0.00 0.00 0.00 25 1005.2
20260504200516 22 225 3.2 11.3 0.00 0.00 0.00 25 1005.2
20260504200016 22 225 4.8 19.3 0.00 0.00 0.00 24 1005.3
20260504195516 22 225 6.4 22.5 0.00 0.00 0.00 24 1005.4
20260504195016 22 225 6.4 20.9 0.00 0.00 0.00 24 1005.3
20260504194517 22 225 6.4 20.9 0.00 0.00 0.00 24 1005.2
20260504194016 22 0 6.4 24.1 0.00 0.00 0.00 24 1005.4
20260504193536 22 225 4.8 17.7 0.00 0.00 0.00 24 1005.4
20260504193016 22 0 4.8 14.5 0.00 0.00 0.00 24 1005.2
20260504192516 22 225 4.8 20.9 0.00 0.00 0.00 24 1005.3
20260504192016 22 0 6.4 19.3 0.00 0.00 0.00 24 1005.1
20260504191516 22 225 6.4 19.3 0.00 0.00 0.00 24 1005.3
20260504191016 22 225 6.4 22.5 0.00 0.00 0.00 24 1005.4
20260504190516 22 225 8.0 19.3 0.00 0.00 0.00 24 1005.4
20260504190038 22 0 4.8 12.9 0.00 0.00 0.00 24 1005.3
20260504185516 22 0 6.4 19.3 0.00 0.00 0.00 25 1005.4
20260504185016 22 0 9.7 29.0 0.00 0.00 0.00 24 1005.5
20260504184516 22 0 8.0 27.4 0.00 0.00 0.00 25 1005.3
20260504184016 22 0 9.7 27.4 0.00 0.00 0.00 24 1005.6
20260504183536 22 0 6.4 19.3 0.00 0.00 0.00 25 1005.6
20260504183018 22 0 6.4 16.1 0.00 0.00 0.00 25 1005.6
20260504182516 22 0 6.4 19.3 0.00 0.00 0.00 24 1005.8
20260504182036 22 0 6.4 25.7 0.00 0.00 0.00 25 1005.7
20260504181516 22 0 6.4 20.9 0.00 0.00 0.00 24 1005.9
20260504181016 22 0 4.8 20.9 0.00 0.00 0.00 25 1005.8
20260504180558 22 0 6.4 19.3 0.00 0.00 0.00 25 1006.0
20260504180016 22 0 6.4 17.7 0.00 0.00 0.00 25 1006.0
20260504175516 22 0 4.8 22.5 0.00 0.00 0.00 25 1005.9
20260504175016 22 0 6.4 30.6 0.00 0.00 0.00 25 1006.1
20260504174516 22 0 6.4 19.3 0.00 0.00 0.00 25 1006.1
20260504174036 22 0 6.4 20.9 0.00 0.00 0.00 24 1006.1
20260504173518 22 0 6.4 17.7 0.00 0.00 0.00 25 1006.1
20260504173016 22 0 8.0 25.7 0.00 0.00 0.00 24 1006.1
20260504172515 22 0 6.4 17.7 0.00 0.00 0.00 24 1006.3
20260504172016 22 0 8.0 29.0 0.00 0.00 0.00 25 1006.2
20260504171536 22 0 8.0 22.5 0.00 0.00 0.00 25 1006.2
20260504171015 22 0 6.4 24.1 0.00 0.00 0.00 25 1006.3
20260504170516 21 0 6.4 22.5 0.00 0.00 0.00 26 1006.1
20260504151015 21 0 3.2 16.1 0.00 0.00 0.00 28 1007.5
20260504150516 21 0 4.8 24.1 0.00 0.00 0.00 29 1007.6
20260504141036 18 225 4.8 14.5 0.00 0.00 0.00 33 1008.0
20260504140515 18 0 3.2 6.4 0.00 0.00 0.00 34 1008.1
20260504130535 15 225 3.2 9.7 0.00 0.00 0.00 40 1009.0
20260504110515 10 225 1.6 6.4 0.00 0.00 0.00 49 1009.2
20260504100515 9 203 1.6 3.2 0.00 0.00 0.00 49 1009.2
20260504081517 9 0.0 3.2 0.00 0.00 0.00 49 1009.1
20260504081017 9 0.0 3.2 0.00 0.00 0.00 49 1009.0
20260504080517 9 135 1.6 3.2 0.00 0.00 0.00 49 1009.0